Time,TemperatureF,DewpointF,PressureIn,WindDirection,WindDirectionDegrees,WindSpeedMPH,WindSpeedGustMPH,Humidity,HourlyPrecipIn,Conditions,Clouds,dailyrainin,SoftwareType,DateUTC
2013-03-09 00:00:00,34.0,25.0,30.21,NNW,333,3.0,12.0,68,0.00,,,0.00,,2013-03-09 05:00:00,
2013-03-09 00:22:00,34.0,25.0,30.21,NNW,333,3.0,12.0,68,0.00,,,0.00,,2013-03-09 05:22:00,
2013-03-09 00:32:00,34.0,25.0,30.21,NNW,333,3.0,12.0,68,0.00,,,0.00,,2013-03-09 05:32:00,
2013-03-09 00:43:00,34.0,25.0,30.21,NNW,333,3.0,12.0,68,0.00,,,0.00,,2013-03-09 05:43:00,
2013-03-09 00:53:00,34.0,25.0,30.21,NNW,333,3.0,12.0,68,0.00,,,0.00,,2013-03-09 05:53:00,
2013-03-09 01:11:00,33.0,24.0,30.22,NNW,327,0.0,4.0,68,0.00,,,0.00,,2013-03-09 06:11:00,
2013-03-09 01:22:00,33.0,24.0,30.22,NNW,327,0.0,4.0,68,0.00,,,0.00,,2013-03-09 06:22:00,
2013-03-09 01:32:00,33.0,24.0,30.22,NNW,327,0.0,4.0,68,0.00,,,0.00,,2013-03-09 06:32:00,
2013-03-09 01:42:00,33.0,24.0,30.22,NNW,327,0.0,4.0,68,0.00,,,0.00,,2013-03-09 06:42:00,
2013-03-09 01:52:00,33.0,24.0,30.22,NNW,327,0.0,4.0,68,0.00,,,0.00,,2013-03-09 06:52:00,
2013-03-09 11:22:00,48.0,29.0,30.28,NW,317,5.0,8.0,47,0.00,,,0.00,,2013-03-09 16:22:00,
2013-03-09 11:32:00,48.0,29.0,30.28,NW,317,5.0,8.0,47,0.00,,,0.00,,2013-03-09 16:32:00,
2013-03-09 11:42:00,48.0,29.0,30.28,NW,317,5.0,8.0,47,0.00,,,0.00,,2013-03-09 16:42:00,
2013-03-09 11:51:00,48.0,29.0,30.28,NW,317,5.0,8.0,47,0.00,,,0.00,,2013-03-09 16:51:00,
2013-03-09 12:22:00,50.0,29.0,30.27,NW,311,1.0,9.0,44,0.00,,,0.00,,2013-03-09 17:22:00,
2013-03-09 12:32:00,50.0,29.0,30.27,NW,311,1.0,9.0,44,0.00,,,0.00,,2013-03-09 17:32:00,
2013-03-09 12:42:00,50.0,29.0,30.27,NW,311,1.0,9.0,44,0.00,,,0.00,,2013-03-09 17:42:00,
2013-03-09 12:52:00,50.0,29.0,30.27,NW,311,1.0,9.0,44,0.00,,,0.00,,2013-03-09 17:52:00,
2013-03-09 13:00:00,54.0,28.0,30.23,ENE,57,0.0,7.0,37,0.00,,,0.00,,2013-03-09 18:00:00,
2013-03-09 13:22:00,54.0,28.0,30.23,ENE,57,0.0,7.0,37,0.00,,,0.00,,2013-03-09 18:22:00,
2013-03-09 13:32:00,54.0,28.0,30.23,ENE,57,0.0,7.0,37,0.00,,,0.00,,2013-03-09 18:32:00,
2013-03-09 13:42:00,54.0,28.0,30.23,ENE,57,0.0,7.0,37,0.00,,,0.00,,2013-03-09 18:42:00,
2013-03-09 13:52:00,54.0,28.0,30.23,ENE,57,0.0,7.0,37,0.00,,,0.00,,2013-03-09 18:52:00,
2013-03-09 15:00:00,58.0,28.0,30.22,NE,37,1.0,6.0,32,0.00,,,0.00,,2013-03-09 20:00:00,
2013-03-09 15:22:00,58.0,28.0,30.22,NE,37,1.0,6.0,32,0.00,,,0.00,,2013-03-09 20:22:00,
2013-03-09 15:32:00,58.0,28.0,30.22,NE,37,1.0,6.0,32,0.00,,,0.00,,2013-03-09 20:32:00,
2013-03-09 15:42:00,58.0,28.0,30.22,NE,37,1.0,6.0,32,0.00,,,0.00,,2013-03-09 20:42:00,
2013-03-09 15:52:00,58.0,28.0,30.22,NE,37,1.0,6.0,32,0.00,,,0.00,,2013-03-09 20:52:00,
2013-03-09 16:22:00,59.0,28.0,30.22,NW,309,1.0,6.0,30,0.00,,,0.00,,2013-03-09 21:22:00,
2013-03-09 16:32:00,59.0,28.0,30.22,NW,309,1.0,6.0,30,0.00,,,0.00,,2013-03-09 21:32:00,
2013-03-09 16:42:00,59.0,28.0,30.22,NW,309,1.0,6.0,30,0.00,,,0.00,,2013-03-09 21:42:00,
2013-03-09 16:52:00,59.0,28.0,30.22,NW,309,1.0,6.0,30,0.00,,,0.00,,2013-03-09 21:52:00,
2013-03-09 17:22:00,59.0,27.0,30.22,NW,316,0.0,4.0,29,0.00,,,0.00,,2013-03-09 22:22:00,
2013-03-09 17:32:00,59.0,27.0,30.22,NW,316,0.0,4.0,29,0.00,,,0.00,,2013-03-09 22:32:00,
2013-03-09 17:42:00,59.0,27.0,30.22,NW,316,0.0,4.0,29,0.00,,,0.00,,2013-03-09 22:42:00,
2013-03-09 17:51:00,59.0,27.0,30.22,NW,316,0.0,4.0,29,0.00,,,0.00,,2013-03-09 22:51:00,
2013-03-09 18:00:00,55.0,24.0,30.23,NW,316,0.0,0.0,30,0.00,,,0.00,,2013-03-09 23:00:00,
2013-03-09 18:22:00,55.0,24.0,30.23,NW,316,0.0,0.0,30,0.00,,,0.00,,2013-03-09 23:22:00,
2013-03-09 18:32:00,55.0,24.0,30.23,NW,316,0.0,0.0,30,0.00,,,0.00,,2013-03-09 23:32:00,
2013-03-09 18:42:00,55.0,24.0,30.23,NW,316,0.0,0.0,30,0.00,,,0.00,,2013-03-09 23:42:00,
2013-03-09 18:52:00,55.0,24.0,30.23,NW,316,0.0,0.0,30,0.00,,,0.00,,2013-03-09 23:52:00,
2013-03-09 19:00:00,52.0,24.0,30.24,NW,316,0.0,0.0,33,0.00,,,0.00,,2013-03-10 00:00:00,
2013-03-09 19:22:00,52.0,24.0,30.24,NW,316,0.0,0.0,33,0.00,,,0.00,,2013-03-10 00:22:00,
2013-03-09 19:32:00,52.0,24.0,30.24,NW,316,0.0,0.0,33,0.00,,,0.00,,2013-03-10 00:32:00,
2013-03-09 19:43:00,52.0,24.0,30.24,NW,316,0.0,0.0,33,0.00,,,0.00,,2013-03-10 00:43:00,
2013-03-09 19:52:00,52.0,24.0,30.24,NW,316,0.0,0.0,33,0.00,,,0.00,,2013-03-10 00:52:00,
2013-03-09 20:22:00,50.0,22.0,30.24,NW,316,0.0,0.0,33,0.00,,,0.00,,2013-03-10 01:22:00,
2013-03-09 20:32:00,50.0,22.0,30.24,NW,316,0.0,0.0,33,0.00,,,0.00,,2013-03-10 01:32:00,
2013-03-09 20:42:00,50.0,22.0,30.24,NW,316,0.0,0.0,33,0.00,,,0.00,,2013-03-10 01:42:00,
2013-03-09 20:52:00,50.0,22.0,30.24,NW,316,0.0,0.0,33,0.00,,,0.00,,2013-03-10 01:52:00,
2013-03-09 22:12:00,46.0,22.0,30.27,NW,316,0.0,0.0,38,0.00,,,0.00,,2013-03-10 03:12:00,
2013-03-09 22:22:00,46.0,22.0,30.27,NW,316,0.0,0.0,38,0.00,,,0.00,,2013-03-10 03:22:00,
2013-03-09 22:32:00,46.0,22.0,30.27,NW,316,0.0,0.0,38,0.00,,,0.00,,2013-03-10 03:32:00,
2013-03-09 22:42:00,46.0,22.0,30.27,NW,316,0.0,0.0,38,0.00,,,0.00,,2013-03-10 03:42:00,
2013-03-09 22:52:00,46.0,22.0,30.27,NW,316,0.0,0.0,38,0.00,,,0.00,,2013-03-10 03:52:00,
2013-03-09 23:00:00,44.0,22.0,30.27,NW,316,0.0,0.0,41,0.00,,,0.00,,2013-03-10 04:00:00,
2013-03-09 23:22:00,44.0,22.0,30.27,NW,316,0.0,0.0,41,0.00,,,0.00,,2013-03-10 04:22:00,
2013-03-09 23:32:00,44.0,22.0,30.27,NW,316,0.0,0.0,41,0.00,,,0.00,,2013-03-10 04:32:00,
2013-03-09 23:42:00,44.0,22.0,30.27,NW,316,0.0,0.0,41,0.00,,,0.00,,2013-03-10 04:42:00,
2013-03-09 23:52:00,44.0,22.0,30.27,NW,316,0.0,0.0,41,0.00,,,0.00,,2013-03-10 04:52:00,